Location: Kelshall
(52.0000°N, 0.0500°W)
Time: 12:34:06
(UTC+00:00)

Meteor 1-24 Rocket - Visible Passes

Search period start: 16 January 2021 00:00
Search period end: 26 January 2021 00:00
Orbit: 789 x 928 km, 81.3° (Epoch: 15 January)

Date Brightness Start Highest point End Pass type
(mag) Time Alt. Az. Time Alt. Az. Time Alt. Az.
16 Jan 5.9 03:26:56 19° ENE 03:26:57 19° ENE 03:30:46 10° ESE visible
16 Jan 3.5 05:09:11 48° NNW 05:10:47 85° W 05:16:18 10° S visible
16 Jan 5.1 06:51:26 13° WNW 06:53:03 15° W 06:55:56 10° WSW visible
16 Jan 3.5 18:21:56 10° S 18:27:19 83° E 18:32:39 10° NNE visible
16 Jan 6.0 20:07:22 10° WSW 20:11:08 19° WNW 20:14:54 10° NNW visible
17 Jan 6.1 03:18:28 18° ENE 03:18:28 18° ENE 03:21:06 10° ESE visible
17 Jan 3.5 05:00:43 76° NNW 05:01:10 87° W 05:06:43 10° S visible
17 Jan 5.1 06:42:59 15° WNW 06:43:29 15° W 06:46:31 10° WSW visible
17 Jan 3.5 18:12:20 10° S 18:17:43 80° E 18:23:02 10° NNE visible
17 Jan 6.0 19:57:41 10° WSW 20:01:30 20° WNW 20:05:20 10° NNW visible
18 Jan 6.3 03:10:07 14° E 03:10:07 14° E 03:11:24 10° E visible
18 Jan 3.7 04:52:22 67° S 04:52:22 67° S 04:57:08 10° S visible
18 Jan 5.1 06:34:38 15° W 06:34:38 15° W 06:37:05 10° WSW visible
18 Jan 3.5 18:02:45 10° S 18:08:06 78° E 18:13:26 10° NNE visible
18 Jan 5.9 19:47:59 10° WSW 19:51:52 20° WNW 19:55:46 10° N visible
19 Jan 4.5 04:44:05 40° SSE 04:44:05 40° SSE 04:47:32 10° SSE visible
19 Jan 5.4 06:26:22 14° WSW 06:26:22 14° WSW 06:27:38 10° WSW visible
19 Jan 3.5 17:53:10 10° S 17:58:30 76° E 18:03:49 10° NNE visible
19 Jan 5.9 19:38:18 10° WSW 19:42:15 21° WNW 19:46:12 10° N visible
20 Jan 5.3 04:35:52 24° SSE 04:35:52 24° SSE 04:37:58 10° SSE visible
20 Jan 5.7 06:18:08 10° WSW 06:18:08 10° WSW 06:18:12 10° WSW visible
20 Jan 3.5 17:43:35 10° S 17:48:54 73° E 17:54:12 10° NNE visible
20 Jan 5.9 19:28:37 10° WSW 19:32:37 21° WNW 19:36:38 10° N visible
21 Jan 5.9 04:27:40 14° SSE 04:27:40 14° SSE 04:28:23 10° SSE visible
21 Jan 3.5 17:34:00 10° S 17:39:18 71° E 17:44:36 10° NNE visible
21 Jan 5.9 19:18:56 10° WSW 19:22:59 22° WNW 19:27:03 10° N visible
22 Jan 3.6 17:24:25 10° S 17:29:42 69° E 17:34:59 10° NNE visible
22 Jan 5.8 19:09:15 10° WSW 19:13:22 22° WNW 19:17:29 10° N visible
23 Jan 3.6 17:14:50 10° S 17:20:05 66° E 17:25:22 10° NNE visible
23 Jan 5.8 18:59:34 10° WSW 19:03:43 23° WNW 19:07:55 10° N visible
24 Jan 3.6 17:05:15 10° S 17:10:29 64° E 17:15:45 10° NNE visible
24 Jan 5.8 18:49:53 10° WSW 18:54:05 23° WNW 18:58:21 10° N visible
25 Jan 5.7 18:40:12 10° WSW 18:44:28 24° WNW 18:48:46 10° N visible
